Boscobel, WI

6:05 PM CST on February 08, 2016 (GMT -0600)
Boscobel

Weather History for KOVS - January, 2012

Change the Weather History Date:

Tuesday, January 31, 2012

  Actual Average Record
Temperature  
Mean Temperature 34 °F -  
Max Temperature 48 °F - - ()
Min Temperature 21 °F - - ()
Degree Days  
Heating Degree Days 30    
Moisture  
Dew Point 28 °F    
Average Humidity 81    
Maximum Humidity 93    
Minimum Humidity 56    
Precipitation  
Precipitation 0.00 in - - ()
Sea Level Pressure  
Sea Level Pressure 29.78 in    
Wind  
Wind Speed 2 mph (SW)    
Max Wind Speed 14 mph    
Max Gust Speed -    
Visibility 7 miles    
Events      
T = Trace of Precipitation, MM = Missing Value Source: NWS Daily Summary

Daily Weather History Graph

Daily Weather History Graph

Search for Another Location

Airport or City:

Trip Planner

Search our weather history database for the weather conditions in past years. The results will help you decide how hot, cold, wet, or windy it might be!

Date:

Astronomy

Jan. 31, 2012 Rise Set
Actual Time 7:19 AM CST 5:13 PM CST
Civil Twilight 6:49 AM CST 5:43 PM CST
Nautical Twilight 6:15 AM CST 6:17 PM CST
Astronomical Twilight 5:41 AM CST 6:50 PM CST
Moon 11:02 AM CST (1/31) 1:08 AM CST (1/31)
Length of Visible Light 10h 54m
Length of Day
9h 53m
First Quarter, 55% of the Moon is Illuminated
Jan 31
First Quarter
Feb 7
Full
Feb 14
Last Quarter
Feb 21
New
Feb 29
First Quarter

Hourly Weather History & Observations

Time (CST) Temp. Windchill Dew Point Humidity Pressure Visibility Wind Dir Wind Speed Gust Speed Precip Events Conditions
12:01 AM 24.8 °F - 21.2 °F 86% 29.76 in 4.0 mi Calm Calm - N/A   Clear
12:53 AM 24.1 °F - 21.9 °F 91% 29.77 in 2.5 mi Calm Calm - N/A   Clear
1:01 AM 24.8 °F - 21.2 °F 86% 29.74 in 3.0 mi Calm Calm - N/A   Clear
1:15 AM 23.0 °F - 21.2 °F 93% 29.74 in 2.5 mi Calm Calm - N/A   Clear
1:26 AM 23.0 °F - 21.2 °F 93% 29.74 in 3.0 mi Calm Calm - N/A   Clear
1:53 AM 21.9 °F - 19.9 °F 92% 29.75 in 4.0 mi Calm Calm - N/A   Clear
2:46 AM 23.0 °F - 19.4 °F 86% 29.71 in 2.0 mi Calm Calm - N/A   Clear
2:53 AM 23.0 °F - 21.0 °F 92% 29.73 in 3.0 mi Calm Calm - N/A   Clear
3:53 AM 21.9 °F - 19.9 °F 92% 29.73 in 6.0 mi Calm Calm - N/A   Clear
4:53 AM 21.9 °F - 19.0 °F 89% 29.73 in 8.0 mi Calm Calm - N/A   Clear
5:53 AM 21.9 °F - 19.0 °F 89% 29.72 in 8.0 mi Calm Calm - N/A   Clear
6:53 AM 23.0 °F - 19.9 °F 88% 29.72 in 7.0 mi Calm Calm - N/A   Clear
7:53 AM 32.0 °F 27.5 °F 30.0 °F 92% 29.72 in 7.0 mi SW 4.6 mph - N/A   Clear
8:53 AM 39.0 °F - 36.0 °F 89% 29.73 in 9.0 mi Calm Calm - N/A   Clear
9:53 AM 46.0 °F 41.4 °F 37.0 °F 71% 29.74 in 10.0 mi SSW 9.2 mph - N/A   Clear
10:53 AM 48.0 °F - 35.1 °F 61% 29.75 in 10.0 mi SW 12.7 mph - N/A   Clear
11:53 AM 48.0 °F - 35.1 °F 61% 29.74 in 10.0 mi SW 13.8 mph - N/A   Clear
12:53 PM 48.9 °F - 34.0 °F 56% 29.75 in 10.0 mi WSW 12.7 mph - N/A   Clear
1:53 PM 48.0 °F - 35.1 °F 61% 29.75 in 10.0 mi SW 10.4 mph - N/A   Clear
2:53 PM 46.9 °F - 35.1 °F 63% 29.75 in 10.0 mi SW 8.1 mph - N/A   Clear
7:53 PM 37.9 °F 33.5 °F 32.0 °F 79% 29.88 in 10.0 mi SW 5.8 mph - N/A   Clear
8:53 PM 37.9 °F 32.1 °F 33.1 °F 83% 29.89 in 10.0 mi SW 8.1 mph - N/A   Clear
9:53 PM 37.9 °F 33.5 °F 33.1 °F 83% 29.91 in 10.0 mi SW 5.8 mph - N/A   Partly Cloudy
10:06 PM 39.2 °F 35.9 °F 33.8 °F 81% 29.90 in 10.0 mi WSW 4.6 mph - N/A   Mostly Cloudy
10:46 PM 39.2 °F 35.9 °F 33.8 °F 81% 29.92 in 10.0 mi Variable 4.6 mph - N/A   Overcast
10:53 PM 39.0 °F 34.8 °F 33.1 °F 79% 29.94 in 10.0 mi West 5.8 mph - N/A   Overcast
11:53 PM 37.0 °F 34.5 °F 32.0 °F 82% 29.97 in 10.0 mi Variable 3.5 mph - N/A   Overcast